Regional Weather Roundup
Issued by NWS

Home | Current Version | Previous Version | Text Only | Print | Product List | Glossary On
Versions: 1 2 3 4 5 6 7 8 9 10 11 12 13 14 15 16 17 18 19 20 21 22 23 24 25 26 27 28 29 30 31 32 33 34 35 36 37 38 39 40 41 42 43 44 45 46 47 48 49 50
000
ASUS43 KIND 260109
RWRIN

WEATHER ROUNDUP FOR INDIANA
NATIONAL WEATHER SERVICE INDIANAPOLIS IN
900 PM EDT SAT OCT 25 2014

NOTE: "FAIR" INDICATES FEW OR NO CLOUDS BELOW 12,000 FEET WITH NO
SIGNIFICANT WEATHER AND/OR OBSTRUCTIONS TO VISIBILITY.

* - STATION DOES NOT REPORT WEATHER SUCH AS PRECIPITATION OR FOG.

+ - STATION NOT QUALITY CONTROLLED BY THE NATIONAL WEATHER SERVICE.
    USE DATA WITH CAUTION...ESPECIALLY DEWPOINT AND RELATIVE
    HUMIDITY OBSERVATIONS.

INZ001>003-010>013-019-020-260200-
NORTHWEST INDIANA

CITY           SKY/WX    TMP DP  RH WIND       PRES   REMARKS
GARY /AIRPORT/ CLEAR     64  27  24 W14       29.94R
KNOX *+        CLEAR     58  32  36 W7        29.90S
LA PORTE +     CLEAR     60  38  43 NW6       29.92R
MICHIGAN CITY+ CLEAR     61  32  33 NW9       29.92R
MONTICELLO +   CLEAR     61  38  42 W9        29.92R
RENSSELAER +   CLEAR     59  34  38 W7        29.94R
VALPARAISO     CLEAR     62  28  27 W12       29.93R

$$

LMZ046-743>745-260200-
SOUTHERN LAKE MICHIGAN

STATION/POSITION TIME  TEMP WIND        PRES
                       AIR  DIR/SP/G
                 (UTC) (F)  (DEG/KT/KT) (MB)
MICHIGAN CITY    0100   60  260/ 15/ 17   N/A

$$

INZ004-005-014>016-021>024-260200-
NORTH CENTRAL INDIANA

CITY           SKY/WX    TMP DP  RH WIND       PRES   REMARKS
GOSHEN         CLEAR     54  37  52 NW7       29.89R
LOGANSPORT +   CLEAR     59  36  41 W8        29.92R
PERU/GRISSOM   CLEAR     53  45  73 W8        29.90R
ROCHESTER +    CLEAR     63  32  31 W6        29.90S
SOUTH BEND     CLEAR     54  38  54 W7        29.91R
WARSAW +       CLEAR     52  37  58 W8        29.89S

$$

INZ006>009-017-018-025>027-260200-
NORTHEAST INDIANA

CITY           SKY/WX    TMP DP  RH WIND       PRES   REMARKS
ANGOLA *+      CLEAR     55  36  47 NW5       29.87R
AUBURN +       CLEAR     54  34  47 W6        29.88R
FORT WAYNE     PTCLDY    55  38  52 W8        29.88S
HUNTINGTON +   CLEAR    N/A N/A N/A CALM      29.89R

$$

INZ028-029-035-036-043>045-051>053-260200-
WEST CENTRAL INDIANA

CITY           SKY/WX    TMP DP  RH WIND       PRES   REMARKS
GREENCASTLE +  CLEAR     64  46  52 W3        29.95F
LAFAYETTE      CLEAR     63  38  39 W14G23    29.94R
TERRE HAUTE    CLEAR     66  46  48 W5        29.97R

$$

INZ030>032-037>040-046>048-054>057-064-065-260200-
CENTRAL INDIANA

CITY           SKY/WX    TMP DP  RH WIND       PRES   REMARKS
CP ATTERBURY + CLEAR     61  48  63 W5        29.94S
COLUMBUS       CLEAR     57  50  77 MISG      29.94S
FRANKFORT +    CLEAR     58  46  62 W8        29.95R
GREENWOOD *+   CLEAR     64  41  42 W6        29.94
INDIANAPOLIS   CLEAR     60  46  59 W10       29.92S
-EAGLE CREEK   CLEAR     64  46  52 W8        29.93R
KOKOMO *+      CLEAR     57  43  58 W9        29.91S
MARION +       CLEAR     55  44  66 W12       29.91S HAZE
MT COMFORT *+  CLEAR     59  39  47 W7        29.92F
SHELBYVILLE    CLEAR     64  47  53 W8        29.92S
ZIONSVILLE +   CLEAR     63  45  51 W7        29.93S

$$

INZ033-034-041-042-049-050-058-059-260200-
EAST CENTRAL INDIANA

CITY           SKY/WX    TMP DP  RH WIND       PRES   REMARKS
MUNCIE         CLEAR     62  48  60 W8        29.90R

$$

INZ060-061-067>069-081>083-085>088-260200-
SOUTHWEST INDIANA

CITY           SKY/WX    TMP DP  RH WIND       PRES   REMARKS
EVANSVILLE     CLEAR     61  54  77 W3        30.00S
HUNTINGBURG *+ CLEAR     63  52  67 CALM      29.99S
WASHINGTON +   CLEAR     65  54  66 W9        29.97S

$$

INZ062-063-066-070>080-084-089>092-260200-
SOUTH CENTRAL AND SOUTHEAST INDIANA

CITY           SKY/WX    TMP DP  RH WIND       PRES   REMARKS
BLOOMINGTON    CLEAR     64  49  57 W5        29.96S
NORTH VERNON + CLEAR     63  52  67 SW8       29.95

$$




USA.gov is the U.S. government's official web portal to all federal, state and local government web resources and services.